SCP
0 0 0 0 0 0 0 -0 0 0 0 -0 0 0 0 0 0 0 0 -0 -0 -0 0 -0 -0 0 -0 -0 -0 -0 -0 -0 -0 -0 -0 -0 -0 -0 0 0 0 0 0 0 0 0 0 0 -0
0 0 0 0 0 0 0 0 0 0 0 0 0 -0 0 -0 0 0 0 0 -0 -0 -0 -0 -0 -0 -0 -0 -0 -0 -0 -0 -0 -0 -0 -0 -0 0 0 0 0 0 0 0 0 0 0 0 0
0 0 0 0 0 0 0 0 0 0 0 0 0 0 0 -0 0 -0 0 0 -0 -0 -0 -0 -0 -0 -0 -0 -0 -0 -0 -0 -0 -0 -0 -0 0 0 0 0 0 0 0 0 0 0 0 0 0
0 0 0 0 0 0 0 0 0 0 0 -0 0 0 0 -0 -0 0 0 0 0 0 -0 -0 -0 -0 -0 -1 -0 -1 -1 -0 -0 -0 -0 0 0 0 0 0 0 0 0 0 0 0 0 0 0
0 0 0 0 0 0 0 0 0 0 0 0 0 0 0 0 0 0 0 0 0 0 0 0 -0 -0 -0 -0 -1 -1 -1 -0 -0 -0 -0 0 0 0 0 0 0 0 0 0 0 0 0 0 0
0 0 0 0 0 0 0 0 0 0 0 0 0 0 0 0 0 0 0 0 0 0 0 0 0 0 -0 -0 -0 -0 -1 -0 -0 -0 0 0 0 0 0 0 0 0 0 0 0 0 0 0 0
0 0 0 0 0 0 0 0 0 0 0 0 0 0 0 0 0 0 0 0 0 0 0 0 1 0 -0 0 -0 -0 -0 -0 -0 -0 0 0 0 0 0 0 0 0 0 0 0 0 0 0 0
0 0 0 0 0 0 0 0 0 0 0 0 0 0 -0 0 0 0 0 0 0 0 0 0 0 0 -0 -0 0 -0 -0 -0 -0 -0 0 -0 0 0 0 0 0 0 0 0 0 0 0 0 0
0 0 0 0 0 0 0 0 -0 0 0 0 0 0 0 0 0 0 0 0 0 0 0 0 0 0 -0 -0 -0 0 -0 -0 -0 -0 -0 0 1 1 0 0 0 0 0 0 0 0 0 0 0
0 0 0 0 0 0 0 0 0 -0 0 0 0 0 0 0 0 0 0 0 0 0 0 0 0 0 0 -0 -0 0 0 0 0 0 0 0 0 0 0 0 0 1 0 0 0 1 1 0 0
0 0 0 0 0 0 0 -0 -0 -0 0 -0 0 0 0 0 0 0 0 0 0 0 0 0 0 0 0 0 0 0 0 0 0 0 0 0 0 0 0 0 0 0 0 0 0 0 1 0 0
0 0 0 0 0 0 0 0 -0 -0 0 -0 -0 0 0 0 0 0 0 0 0 0 0 0 0 0 0 0 0 0 0 -0 0 0 0 0 0 0 0 0 0 0 0 0 0 0 0 0 0
0 0 0 0 0 0 0 0 0 -0 -0 -0 -0 -0 0 0 0 0 0 0 0 1 1 0 0 0 0 0 0 0 0 0 -0 0 0 0 0 0 0 0 0 0 0 0 0 0 0 0 0
0 0 0 0 0 0 0 0 0 -0 -0 -0 -0 -0 -0 0 0 0 0 0 0 1 1 1 0 0 0 0 0 0 0 0 0 0 0 0 0 0 0 0 0 0 0 0 0 0 0 0 0
0 -0 -0 -0 0 0 0 0 0 0 -0 0 -0 -0 -0 0 0 0 0 0 0 1 2 2 1 0 0 0 0 0 0 0 0 0 0 0 0 0 0 0 0 0 0 0 0 0 0 0 0
0 0 0 -0 0 0 0 0 0 0 -0 -0 -0 -0 -0 0 0 0 0 0 0 0 0 2 2 0 0 0 0 0 0 0 0 0 0 0 0 0 0 0 0 0 0 0 0 0 0 0 0
0 0 0 0 0 0 0 0 0 0 0 0 0 -0 -0 -0 0 0 0 0 0 0 0 0 0 0 0 0 0 0 0 0 0 0 0 0 0 0 0 0 0 0 0 0 0 0 0 0 0
0 0 0 0 0 0 0 0 0 0 0 0 0 0 -0 -0 0 0 0 0 0 0 0 0 0 0 0 0 0 0 1 0 0 0 0 0 0 0 0 0 0 0 0 0 0 0 0 0 0
0 0 0 0 0 0 0 0 0 0 0 0 0 0 0 0 0 0 0 0 0 0 0 0 0 0 1 0 0 1 2 1 1 1 1 1 0 0 0 0 0 0 0 0 0 0 0 0 0
0 0 0 0 0 0 0 0 0 0 0 -0 0 0 0 0 0 0 0 0 0 0 0 0 0 0 0 1 2 2 2 2 2 3 2 1 1 1 0 0 0 0 0 0 0 0 0 0 0
0 0 0 -0 -0 0 0 -0 0 0 0 0 0 -0 -0 0 0 0 0 0 0 0 0 0 0 0 0 1 3 0 0 0 2 2 2 1 1 2 1 0 0 0 0 0 0 0 0 0 0
0 0 0 -0 -0 -0 0 -0 -0 -0 0 0 0 0 0 0 0 0 0 0 0 0 0 0 0 0 0 0 2 2 2 2 1 3 2 1 1 1 2 1 0 0 0 0 0 0 0 0 0
0 0 -0 -0 0 0 0 0 -0 -0 0 0 0 0 0 0 0 0 0 0 0 0 0 0 0 0 0 0 1 2 2 1 0 0 0 0 0 0 1 1 0 0 0 0 0 0 0 0 0
0 0 0 0 0 0 0 0 -0 -0 -0 -0 0 0 0 0 0 0 0 0 0 0 0 0 0 0 0 0 0 0 1 0 0 0 0 0 0 0 1 1 0 0 0 0 0 0 0 0 0
0 0 0 -0 -0 -0 0 0 0 0 0 0 -0 0 0 0 0 0 0 0 0 0 0 0 0 0 0 0 0 0 0 0 0 0 0 0 0 1 1 1 0 0 0 0 0 0 0 0 0
0 0 0 -0 0 0 -0 0 0 0 0 -0 -0 0 0 0 0 0 0 0 -0 -0 0 0 0 0 0 0 0 0 0 0 0 0 0 0 0 1 1 1 0 0 0 0 0 0 0 0 0
0 0 0 0 0 0 0 0 0 0 0 0 0 -0 0 0 0 0 0 0 0 -0 0 0 0 0 0 0 0 0 0 0 0 0 0 0 1 1 0 0 0 0 0 0 0 0 0 0 0
0 0 0 0 0 0 0 0 0 0 0 0 0 -0 0 0 0 0 0 0 0 -0 0 0 0 0 0 0 0 0 0 0 0 0 0 1 0 0 0 0 0 0 0 0 0 0 0 0 0
0 0 0 0 0 0 0 0 0 0 -0 -0 0 0 0 0 0 0 0 0 -0 -0 0 0 0 0 0 0 0 0 0 0 0 1 1 0 0 0 0 0 0 0 0 0 0 0 0 0 0
0 0 0 0 0 0 0 0 0 0 0 0 0 0 0 0 0 0 0 0 0 -0 0 0 0 0 0 0 0 0 0 1 1 1 0 0 0 0 0 0 0 0 0 0 0 0 0 0 0
Wind_Speed_500mb
12 4 6 2 5 9 7 14 6 13 16 3 30 10 18 51 16 13 31 82 81 83 78 71 67 62 57 56 57 56 54 51 48 46 43 42 40 37 34 32 29 27 25 24 22 21 21 20 18
7 5 3 5 7 0 11 10 9 11 21 48 48 25 14 15 42 16 62 85 87 89 83 76 72 68 62 58 58 56 55 54 52 47 44 41 38 34 32 30 27 25 22 21 20 20 19 18 17
3 7 1 6 6 12 10 8 8 15 47 44 17 30 22 11 29 45 68 87 96 92 88 78 76 71 64 59 56 54 54 52 50 47 44 39 35 32 29 27 25 22 19 17 16 17 16 16 15
10 4 4 5 22 11 11 6 12 23 46 22 22 24 31 31 15 60 91 89 100 92 88 82 78 74 67 61 57 53 51 50 48 45 41 37 33 29 27 24 22 19 16 13 13 14 13 12 11
10 3 2 7 19 10 7 10 24 16 17 33 42 24 15 7 23 68 94 90 103 96 89 82 78 75 71 63 58 53 48 47 45 43 39 35 31 28 26 23 20 18 15 13 10 7 7 7 8
9 4 5 14 26 8 5 13 12 14 29 39 25 43 5 13 17 69 82 90 97 93 87 83 77 75 72 66 59 54 49 44 41 40 37 34 32 29 28 25 23 21 19 17 14 13 10 9 8
11 7 10 9 19 13 2 7 6 9 18 21 53 9 8 12 26 66 86 101 101 91 87 82 78 76 73 66 59 55 50 45 42 40 38 37 35 34 32 30 28 27 26 24 22 20 17 16 15
10 8 7 10 22 11 2 22 15 17 21 46 32 15 15 27 31 73 83 102 101 94 86 81 80 78 76 70 62 57 52 45 43 41 41 39 39 38 38 38 36 33 32 31 29 27 24 24 24
8 4 12 19 16 5 25 14 6 27 32 43 26 31 62 28 38 60 69 85 91 90 84 79 79 77 74 70 65 59 54 48 45 44 43 44 45 45 46 44 41 40 39 38 36 35 32 32 32
9 8 16 6 18 17 34 36 42 18 30 38 48 33 53 20 43 60 58 78 82 84 82 79 77 76 73 70 68 64 58 54 51 49 48 49 48 49 49 48 46 46 45 45 44 43 41 41 39
8 13 6 6 11 17 21 40 39 24 31 9 45 59 65 39 38 48 62 77 91 89 84 85 80 76 73 71 69 65 63 57 53 51 52 53 51 54 55 55 53 52 51 53 51 51 51 48 46
7 9 4 9 26 31 26 47 44 49 74 48 48 56 49 44 37 49 59 67 79 80 86 83 82 78 76 74 70 66 63 61 57 55 57 58 57 59 59 59 56 56 56 57 55 57 57 54 52
7 6 16 21 28 34 42 37 40 69 87 46 45 37 41 40 37 51 52 61 70 72 79 81 85 82 80 74 68 67 64 61 63 60 62 63 63 63 59 60 60 59 58 60 57 59 62 60 57
9 11 23 11 26 24 21 32 22 76 46 43 36 35 40 36 44 40 60 63 60 64 69 76 78 75 69 67 60 61 61 59 60 66 67 66 67 64 61 59 58 57 56 55 57 56 60 59 57
12 11 10 10 14 12 21 32 46 69 28 41 39 41 29 40 36 36 42 73 70 63 66 68 68 69 63 55 50 62 51 51 51 51 62 58 58 60 59 56 52 47 45 45 49 50 54 55 52
9 10 8 10 9 14 22 48 20 33 29 43 59 30 33 35 39 42 34 55 66 59 58 64 68 68 73 77 55 52 67 69 51 49 54 50 54 57 56 57 54 47 43 43 46 45 48 49 46
11 2 4 12 10 10 15 11 7 36 25 28 43 40 25 28 36 42 44 41 53 69 59 62 71 77 85 79 80 80 82 71 57 61 61 57 54 56 57 61 57 51 47 48 48 47 44 48 42
10 6 8 10 13 6 22 28 13 27 22 30 38 52 49 48 39 35 47 49 52 50 64 65 74 76 85 86 75 76 77 71 75 71 72 65 56 56 57 61 60 58 55 55 54 50 47 49 40
9 8 12 15 21 13 19 32 23 23 19 23 42 44 48 47 48 46 37 41 50 58 62 60 77 78 78 86 87 92 85 79 84 80 83 68 57 55 57 63 60 62 62 59 58 54 54 52 39
2 4 8 10 18 18 24 38 27 9 13 20 28 48 51 57 54 51 45 35 39 54 56 64 63 66 74 99 94 100 97 90 91 92 85 69 59 53 60 64 64 63 63 63 63 59 59 57 42
4 3 8 12 13 10 18 35 16 10 12 28 31 34 47 56 63 54 53 51 38 39 59 75 78 70 72 80 88 114 110 105 106 100 84 71 59 60 64 66 64 65 62 58 56 56 59 58 41
5 5 8 13 11 7 6 28 30 17 16 11 26 44 61 58 51 62 62 55 55 44 51 62 77 83 73 68 77 85 115 123 108 87 71 59 54 57 60 63 62 60 59 55 46 47 51 48 46
12 4 3 10 18 6 11 10 28 7 28 20 20 32 23 33 42 48 54 54 53 47 44 53 59 75 78 73 64 81 107 115 95 67 57 54 59 57 57 58 60 59 52 48 45 43 43 41 42
0 4 9 8 3 6 14 20 45 29 21 12 3 21 32 43 48 53 56 57 57 56 50 45 54 63 66 72 70 72 87 100 81 67 58 57 60 58 52 55 58 55 43 42 41 36 37 37 38
9 10 8 9 6 10 9 11 38 18 15 4 10 31 37 41 50 55 58 62 61 58 57 50 45 50 60 66 74 70 76 80 72 60 56 56 58 57 47 49 46 41 38 40 31 32 38 32 39
12 14 9 9 7 17 23 12 14 4 8 10 11 23 38 50 53 57 59 56 58 59 57 57 57 51 50 64 64 74 80 78 71 63 61 60 60 52 39 34 33 35 38 34 29 33 31 35 33
3 8 13 8 7 6 10 12 17 13 9 9 19 26 47 61 71 73 68 53 54 58 60 58 62 61 59 59 73 80 87 80 74 69 68 66 59 46 36 32 34 40 38 31 26 28 30 30 32
15 10 7 1 9 14 12 12 19 12 17 16 20 26 53 68 74 85 73 55 50 58 58 60 66 59 59 59 71 75 79 74 75 69 69 64 52 41 40 34 42 39 32 27 25 32 27 30 29
6 6 3 5 7 8 17 16 11 14 17 20 26 37 54 77 81 88 83 64 52 62 52 56 66 62 53 55 61 72 74 76 65 54 54 47 43 38 35 40 43 36 28 28 33 33 31 31 25
23 21 15 8 10 9 10 37 10 18 18 15 35 47 65 75 76 83 73 58 54 50 48 48 64 59 44 42 53 58 61 55 49 46 39 41 40 40 37 40 39 30 29 35 35 36 34 30 27
Wind_Direction_500mb
335 238 193 150 44 62 254 253 269 308 328 112 319 261 239 244 174 218 185 171 171 167 165 164 164 160 157 150 147 144 145 144 144 143 143 143 142 141 137 135 132 127 123 118 116 113 107 105 106
334 175 189 114 102 255 267 245 263 247 267 303 304 289 244 255 206 214 160 171 173 167 166 167 167 165 162 158 154 153 152 151 150 151 151 150 149 148 146 143 140 139 136 131 128 120 115 112 111
216 180 157 122 166 204 229 227 241 289 303 294 306 310 284 231 196 181 173 172 175 171 167 167 170 170 167 165 162 161 160 160 158 158 160 160 160 160 159 159 157 154 149 143 140 131 130 127 126
153 181 68 106 240 248 216 266 322 328 326 15 311 296 293 260 256 179 171 175 176 173 170 167 172 172 173 172 170 169 169 170 168 169 171 172 173 175 177 177 175 171 170 166 164 149 143 136 137
147 169 90 261 257 253 245 268 297 301 275 299 303 281 255 252 201 180 172 178 178 175 172 171 173 175 177 178 177 177 177 180 178 181 184 186 190 194 197 198 197 194 195 197 199 188 167 163 167
144 143 108 242 255 265 278 271 278 261 299 316 333 313 242 238 227 177 180 179 181 175 174 174 176 179 180 183 183 185 185 187 191 192 195 200 206 212 217 218 220 220 221 221 225 228 224 226 224
148 122 214 259 270 292 263 305 262 296 323 323 336 278 313 238 212 183 181 182 183 179 179 177 179 182 183 188 189 191 193 195 199 205 208 212 217 222 227 233 233 235 236 237 236 241 241 245 248
199 138 203 238 258 280 22 347 315 353 319 318 347 348 294 220 205 183 184 183 184 182 182 182 183 186 186 189 195 198 199 202 207 213 218 222 226 230 234 238 241 242 245 247 247 247 248 251 257
180 156 221 229 253 277 317 349 251 323 302 316 322 343 350 239 192 186 186 188 187 186 185 188 188 191 191 192 197 201 205 208 214 218 224 228 231 235 237 239 243 247 250 252 253 253 251 253 256
174 197 212 230 237 307 304 295 301 321 320 305 315 330 354 221 190 185 192 193 191 190 192 195 194 195 196 197 200 205 208 212 218 224 229 234 238 240 245 246 246 249 252 254 255 256 254 252 254
211 240 144 226 279 304 286 293 305 315 290 304 313 321 327 335 228 206 194 204 196 197 197 198 199 201 201 202 205 210 213 217 222 230 236 241 244 244 246 250 249 250 254 255 257 258 258 258 257
262 271 236 295 278 281 276 293 281 288 271 288 294 307 311 315 268 227 207 196 202 200 203 203 204 206 208 209 212 216 221 225 228 235 240 243 247 248 251 254 258 257 257 260 261 263 264 262 261
197 296 326 312 304 287 285 268 276 275 277 286 293 297 297 297 303 232 216 210 207 210 207 208 211 210 213 215 216 222 226 233 237 242 246 249 252 255 260 261 263 263 262 263 263 265 266 264 264
316 289 295 307 300 276 270 282 282 268 284 289 293 296 284 272 281 293 231 225 225 213 214 213 214 213 217 220 228 231 233 238 244 250 254 256 259 260 262 264 266 265 265 268 267 268 268 269 267
292 324 340 227 235 240 259 274 248 269 286 298 301 298 302 276 273 273 263 228 229 227 223 224 222 216 215 219 218 231 230 251 251 257 255 255 260 263 264 262 263 264 267 270 267 266 265 266 266
350 60 27 286 296 254 196 256 269 289 316 293 295 285 276 273 282 272 263 241 225 215 224 231 227 217 216 220 219 242 231 243 245 252 251 258 260 264 264 263 264 266 266 267 266 265 265 266 266
8 282 285 298 263 280 197 301 352 333 346 320 312 323 336 301 277 269 262 260 239 219 229 228 219 215 217 220 232 237 242 243 245 250 253 254 255 260 262 264 268 270 268 270 269 267 265 266 266
290 291 260 267 293 255 279 279 267 294 306 302 307 313 325 318 308 281 272 264 252 250 241 235 230 232 231 231 231 220 228 240 240 246 251 251 252 259 263 266 268 273 270 271 269 268 267 266 267
277 282 273 278 287 283 271 287 290 276 274 287 303 313 318 318 312 304 302 271 263 244 235 236 238 237 227 228 226 229 232 238 240 243 247 250 254 260 265 268 270 272 272 275 276 271 268 262 263
12 322 318 297 326 328 301 286 292 248 253 258 290 304 309 309 309 307 313 316 274 254 243 245 244 237 242 243 237 236 239 237 241 240 243 248 254 260 265 269 268 269 275 276 278 272 267 259 252
329 142 303 282 315 281 318 292 295 291 265 282 282 294 311 309 308 313 309 313 315 277 261 255 251 248 247 243 246 244 241 241 241 239 243 245 251 255 263 265 261 266 271 274 278 274 265 257 258
311 271 291 307 351 295 46 291 285 274 274 270 294 303 300 309 305 305 308 308 301 310 280 267 262 260 258 251 248 247 239 239 242 243 244 247 264 258 265 265 261 264 264 267 278 277 262 251 255
230 284 289 283 276 250 215 253 289 19 286 284 269 302 325 319 316 313 306 299 293 290 299 277 259 260 256 254 259 250 242 239 245 243 248 258 256 259 266 263 260 267 262 262 270 265 252 253 251
174 343 346 328 300 250 233 214 276 274 257 232 273 305 312 319 318 315 307 304 295 282 288 291 280 256 259 253 255 251 244 239 237 241 249 256 253 257 262 266 262 257 255 256 260 256 251 252 251
73 55 332 334 337 238 325 316 260 306 281 203 253 300 314 317 317 321 317 308 301 293 284 288 287 273 256 249 248 243 238 232 239 247 259 256 256 259 271 270 259 246 244 246 246 250 248 240 243
214 160 167 255 265 284 295 247 248 241 157 223 271 299 311 316 323 321 318 313 307 295 288 287 285 273 265 253 244 238 236 237 243 254 257 255 256 258 272 259 249 238 235 239 230 244 233 234 239
237 170 202 229 284 283 232 277 293 223 247 257 299 307 313 316 315 315 318 308 308 298 289 287 283 279 260 255 245 238 235 236 248 254 256 253 252 251 250 245 241 226 231 234 242 231 222 227 231
186 186 231 81 265 241 261 258 236 257 283 300 293 282 305 316 313 315 311 302 305 305 289 283 278 277 260 252 243 241 242 245 253 253 253 249 242 245 237 237 228 226 233 232 221 213 218 220 223
306 250 111 177 184 234 272 258 218 232 233 249 269 283 297 309 312 313 304 298 303 306 294 284 275 274 268 248 245 242 240 243 244 243 236 230 233 239 225 225 223 229 222 208 215 211 218 221 220
261 249 197 211 241 235 261 263 191 236 244 231 267 285 293 296 309 313 305 296 305 302 301 287 270 267 266 248 246 241 234 229 218 226 220 223 234 230 219 215 224 205 204 215 207 212 213 209 213
Wind_Speed_850mb
12 4 6 2 5 9 7 14 6 13 16 3 30 10 18 51 16 13 31 82 81 83 78 71 67 62 57 56 57 56 54 51 48 46 43 42 40 37 34 32 29 27 25 24 22 21 21 20 18
7 5 3 5 7 0 11 10 9 11 21 48 48 25 14 15 42 16 62 85 87 89 83 76 72 68 62 58 58 56 55 54 52 47 44 41 38 34 32 30 27 25 22 21 20 20 19 18 17
3 7 1 6 6 12 10 8 8 15 47 44 17 30 22 11 29 45 68 87 96 92 88 78 76 71 64 59 56 54 54 52 50 47 44 39 35 32 29 27 25 22 19 17 16 17 16 16 15
10 4 4 5 22 11 11 6 12 23 46 22 22 24 31 31 15 60 91 89 100 92 88 82 78 74 67 61 57 53 51 50 48 45 41 37 33 29 27 24 22 19 16 13 13 14 13 12 11
10 3 2 7 19 10 7 10 24 16 17 33 42 24 15 7 23 68 94 90 103 96 89 82 78 75 71 63 58 53 48 47 45 43 39 35 31 28 26 23 20 18 15 13 10 7 7 7 8
9 4 5 14 26 8 5 13 12 14 29 39 25 43 5 13 17 69 82 90 97 93 87 83 77 75 72 66 59 54 49 44 41 40 37 34 32 29 28 25 23 21 19 17 14 13 10 9 8
11 7 10 9 19 13 2 7 6 9 18 21 53 9 8 12 26 66 86 101 101 91 87 82 78 76 73 66 59 55 50 45 42 40 38 37 35 34 32 30 28 27 26 24 22 20 17 16 15
10 8 7 10 22 11 2 22 15 17 21 46 32 15 15 27 31 73 83 102 101 94 86 81 80 78 76 70 62 57 52 45 43 41 41 39 39 38 38 38 36 33 32 31 29 27 24 24 24
8 4 12 19 16 5 25 14 6 27 32 43 26 31 62 28 38 60 69 85 91 90 84 79 79 77 74 70 65 59 54 48 45 44 43 44 45 45 46 44 41 40 39 38 36 35 32 32 32
9 8 16 6 18 17 34 36 42 18 30 38 48 33 53 20 43 60 58 78 82 84 82 79 77 76 73 70 68 64 58 54 51 49 48 49 48 49 49 48 46 46 45 45 44 43 41 41 39
8 13 6 6 11 17 21 40 39 24 31 9 45 59 65 39 38 48 62 77 91 89 84 85 80 76 73 71 69 65 63 57 53 51 52 53 51 54 55 55 53 52 51 53 51 51 51 48 46
7 9 4 9 26 31 26 47 44 49 74 48 48 56 49 44 37 49 59 67 79 80 86 83 82 78 76 74 70 66 63 61 57 55 57 58 57 59 59 59 56 56 56 57 55 57 57 54 52
7 6 16 21 28 34 42 37 40 69 87 46 45 37 41 40 37 51 52 61 70 72 79 81 85 82 80 74 68 67 64 61 63 60 62 63 63 63 59 60 60 59 58 60 57 59 62 60 57
9 11 23 11 26 24 21 32 22 76 46 43 36 35 40 36 44 40 60 63 60 64 69 76 78 75 69 67 60 61 61 59 60 66 67 66 67 64 61 59 58 57 56 55 57 56 60 59 57
12 11 10 10 14 12 21 32 46 69 28 41 39 41 29 40 36 36 42 73 70 63 66 68 68 69 63 55 50 62 51 51 51 51 62 58 58 60 59 56 52 47 45 45 49 50 54 55 52
9 10 8 10 9 14 22 48 20 33 29 43 59 30 33 35 39 42 34 55 66 59 58 64 68 68 73 77 55 52 67 69 51 49 54 50 54 57 56 57 54 47 43 43 46 45 48 49 46
11 2 4 12 10 10 15 11 7 36 25 28 43 40 25 28 36 42 44 41 53 69 59 62 71 77 85 79 80 80 82 71 57 61 61 57 54 56 57 61 57 51 47 48 48 47 44 48 42
10 6 8 10 13 6 22 28 13 27 22 30 38 52 49 48 39 35 47 49 52 50 64 65 74 76 85 86 75 76 77 71 75 71 72 65 56 56 57 61 60 58 55 55 54 50 47 49 40
9 8 12 15 21 13 19 32 23 23 19 23 42 44 48 47 48 46 37 41 50 58 62 60 77 78 78 86 87 92 85 79 84 80 83 68 57 55 57 63 60 62 62 59 58 54 54 52 39
2 4 8 10 18 18 24 38 27 9 13 20 28 48 51 57 54 51 45 35 39 54 56 64 63 66 74 99 94 100 97 90 91 92 85 69 59 53 60 64 64 63 63 63 63 59 59 57 42
4 3 8 12 13 10 18 35 16 10 12 28 31 34 47 56 63 54 53 51 38 39 59 75 78 70 72 80 88 114 110 105 106 100 84 71 59 60 64 66 64 65 62 58 56 56 59 58 41
5 5 8 13 11 7 6 28 30 17 16 11 26 44 61 58 51 62 62 55 55 44 51 62 77 83 73 68 77 85 115 123 108 87 71 59 54 57 60 63 62 60 59 55 46 47 51 48 46
12 4 3 10 18 6 11 10 28 7 28 20 20 32 23 33 42 48 54 54 53 47 44 53 59 75 78 73 64 81 107 115 95 67 57 54 59 57 57 58 60 59 52 48 45 43 43 41 42
0 4 9 8 3 6 14 20 45 29 21 12 3 21 32 43 48 53 56 57 57 56 50 45 54 63 66 72 70 72 87 100 81 67 58 57 60 58 52 55 58 55 43 42 41 36 37 37 38
9 10 8 9 6 10 9 11 38 18 15 4 10 31 37 41 50 55 58 62 61 58 57 50 45 50 60 66 74 70 76 80 72 60 56 56 58 57 47 49 46 41 38 40 31 32 38 32 39
12 14 9 9 7 17 23 12 14 4 8 10 11 23 38 50 53 57 59 56 58 59 57 57 57 51 50 64 64 74 80 78 71 63 61 60 60 52 39 34 33 35 38 34 29 33 31 35 33
3 8 13 8 7 6 10 12 17 13 9 9 19 26 47 61 71 73 68 53 54 58 60 58 62 61 59 59 73 80 87 80 74 69 68 66 59 46 36 32 34 40 38 31 26 28 30 30 32
15 10 7 1 9 14 12 12 19 12 17 16 20 26 53 68 74 85 73 55 50 58 58 60 66 59 59 59 71 75 79 74 75 69 69 64 52 41 40 34 42 39 32 27 25 32 27 30 29
6 6 3 5 7 8 17 16 11 14 17 20 26 37 54 77 81 88 83 64 52 62 52 56 66 62 53 55 61 72 74 76 65 54 54 47 43 38 35 40 43 36 28 28 33 33 31 31 25
23 21 15 8 10 9 10 37 10 18 18 15 35 47 65 75 76 83 73 58 54 50 48 48 64 59 44 42 53 58 61 55 49 46 39 41 40 40 37 40 39 30 29 35 35 36 34 30 27
Wind_Direction_850mb
335 238 193 150 44 62 254 253 269 308 328 112 319 261 239 244 174 218 185 171 171 167 165 164 164 160 157 150 147 144 145 144 144 143 143 143 142 141 137 135 132 127 123 118 116 113 107 105 106
334 175 189 114 102 255 267 245 263 247 267 303 304 289 244 255 206 214 160 171 173 167 166 167 167 165 162 158 154 153 152 151 150 151 151 150 149 148 146 143 140 139 136 131 128 120 115 112 111
216 180 157 122 166 204 229 227 241 289 303 294 306 310 284 231 196 181 173 172 175 171 167 167 170 170 167 165 162 161 160 160 158 158 160 160 160 160 159 159 157 154 149 143 140 131 130 127 126
153 181 68 106 240 248 216 266 322 328 326 15 311 296 293 260 256 179 171 175 176 173 170 167 172 172 173 172 170 169 169 170 168 169 171 172 173 175 177 177 175 171 170 166 164 149 143 136 137
147 169 90 261 257 253 245 268 297 301 275 299 303 281 255 252 201 180 172 178 178 175 172 171 173 175 177 178 177 177 177 180 178 181 184 186 190 194 197 198 197 194 195 197 199 188 167 163 167
144 143 108 242 255 265 278 271 278 261 299 316 333 313 242 238 227 177 180 179 181 175 174 174 176 179 180 183 183 185 185 187 191 192 195 200 206 212 217 218 220 220 221 221 225 228 224 226 224
148 122 214 259 270 292 263 305 262 296 323 323 336 278 313 238 212 183 181 182 183 179 179 177 179 182 183 188 189 191 193 195 199 205 208 212 217 222 227 233 233 235 236 237 236 241 241 245 248
199 138 203 238 258 280 22 347 315 353 319 318 347 348 294 220 205 183 184 183 184 182 182 182 183 186 186 189 195 198 199 202 207 213 218 222 226 230 234 238 241 242 245 247 247 247 248 251 257
180 156 221 229 253 277 317 349 251 323 302 316 322 343 350 239 192 186 186 188 187 186 185 188 188 191 191 192 197 201 205 208 214 218 224 228 231 235 237 239 243 247 250 252 253 253 251 253 256
174 197 212 230 237 307 304 295 301 321 320 305 315 330 354 221 190 185 192 193 191 190 192 195 194 195 196 197 200 205 208 212 218 224 229 234 238 240 245 246 246 249 252 254 255 256 254 252 254
211 240 144 226 279 304 286 293 305 315 290 304 313 321 327 335 228 206 194 204 196 197 197 198 199 201 201 202 205 210 213 217 222 230 236 241 244 244 246 250 249 250 254 255 257 258 258 258 257
262 271 236 295 278 281 276 293 281 288 271 288 294 307 311 315 268 227 207 196 202 200 203 203 204 206 208 209 212 216 221 225 228 235 240 243 247 248 251 254 258 257 257 260 261 263 264 262 261
197 296 326 312 304 287 285 268 276 275 277 286 293 297 297 297 303 232 216 210 207 210 207 208 211 210 213 215 216 222 226 233 237 242 246 249 252 255 260 261 263 263 262 263 263 265 266 264 264
316 289 295 307 300 276 270 282 282 268 284 289 293 296 284 272 281 293 231 225 225 213 214 213 214 213 217 220 228 231 233 238 244 250 254 256 259 260 262 264 266 265 265 268 267 268 268 269 267
292 324 340 227 235 240 259 274 248 269 286 298 301 298 302 276 273 273 263 228 229 227 223 224 222 216 215 219 218 231 230 251 251 257 255 255 260 263 264 262 263 264 267 270 267 266 265 266 266
350 60 27 286 296 254 196 256 269 289 316 293 295 285 276 273 282 272 263 241 225 215 224 231 227 217 216 220 219 242 231 243 245 252 251 258 260 264 264 263 264 266 266 267 266 265 265 266 266
8 282 285 298 263 280 197 301 352 333 346 320 312 323 336 301 277 269 262 260 239 219 229 228 219 215 217 220 232 237 242 243 245 250 253 254 255 260 262 264 268 270 268 270 269 267 265 266 266
290 291 260 267 293 255 279 279 267 294 306 302 307 313 325 318 308 281 272 264 252 250 241 235 230 232 231 231 231 220 228 240 240 246 251 251 252 259 263 266 268 273 270 271 269 268 267 266 267
277 282 273 278 287 283 271 287 290 276 274 287 303 313 318 318 312 304 302 271 263 244 235 236 238 237 227 228 226 229 232 238 240 243 247 250 254 260 265 268 270 272 272 275 276 271 268 262 263
12 322 318 297 326 328 301 286 292 248 253 258 290 304 309 309 309 307 313 316 274 254 243 245 244 237 242 243 237 236 239 237 241 240 243 248 254 260 265 269 268 269 275 276 278 272 267 259 252
329 142 303 282 315 281 318 292 295 291 265 282 282 294 311 309 308 313 309 313 315 277 261 255 251 248 247 243 246 244 241 241 241 239 243 245 251 255 263 265 261 266 271 274 278 274 265 257 258
311 271 291 307 351 295 46 291 285 274 274 270 294 303 300 309 305 305 308 308 301 310 280 267 262 260 258 251 248 247 239 239 242 243 244 247 264 258 265 265 261 264 264 267 278 277 262 251 255
230 284 289 283 276 250 215 253 289 19 286 284 269 302 325 319 316 313 306 299 293 290 299 277 259 260 256 254 259 250 242 239 245 243 248 258 256 259 266 263 260 267 262 262 270 265 252 253 251
174 343 346 328 300 250 233 214 276 274 257 232 273 305 312 319 318 315 307 304 295 282 288 291 280 256 259 253 255 251 244 239 237 241 249 256 253 257 262 266 262 257 255 256 260 256 251 252 251
73 55 332 334 337 238 325 316 260 306 281 203 253 300 314 317 317 321 317 308 301 293 284 288 287 273 256 249 248 243 238 232 239 247 259 256 256 259 271 270 259 246 244 246 246 250 248 240 243
214 160 167 255 265 284 295 247 248 241 157 223 271 299 311 316 323 321 318 313 307 295 288 287 285 273 265 253 244 238 236 237 243 254 257 255 256 258 272 259 249 238 235 239 230 244 233 234 239
237 170 202 229 284 283 232 277 293 223 247 257 299 307 313 316 315 315 318 308 308 298 289 287 283 279 260 255 245 238 235 236 248 254 256 253 252 251 250 245 241 226 231 234 242 231 222 227 231
186 186 231 81 265 241 261 258 236 257 283 300 293 282 305 316 313 315 311 302 305 305 289 283 278 277 260 252 243 241 242 245 253 253 253 249 242 245 237 237 228 226 233 232 221 213 218 220 223
306 250 111 177 184 234 272 258 218 232 233 249 269 283 297 309 312 313 304 298 303 306 294 284 275 274 268 248 245 242 240 243 244 243 236 230 233 239 225 225 223 229 222 208 215 211 218 221 220
261 249 197 211 241 235 261 263 191 236 244 231 267 285 293 296 309 313 305 296 305 302 301 287 270 267 266 248 246 241 234 229 218 226 220 223 234 230 219 215 224 205 204 215 207 212 213 209 213